カタログに戻る

FALCON-9 R/B

運用中HEO
NORAD 60087·ROCKET BODY·🇺🇸 United States

打ち上げ Jun 20, 2024 から Cape Canaveral Space Force Station

Loading…

次のパス (今後24時間)

TLE

最新Source: Space-Track

元期: Sep 13, 2026, 22:43 UTC

1 60087U 24115B   26256.94662189  .00000337  00000-0  67278-2 0  9995
2 60087  26.4998 254.3990 7929478  95.2941 348.8703  1.44182934 11730

AllMySatでFALCON-9 R/Bをリアルタイム追跡

Download on the App Store